FW9103 Weather Reports


time (UTC)temp
C
wind
direction
speed
KPH
gust
KPH
rain 1hr
cm
rain 24hr
cm
rain mn
cm
humidity
%
barometer
mb
20260507151022 10 306 3.2 9.7 0.00 1.85 0.99 89 1007.4
20260507150022 10 292 1.6 11.3 0.00 1.85 0.99 90 1007.6
20260507145022 10 317 4.8 14.5 0.00 1.85 0.99 91 1007.6
20260507144027 10 305 3.2 11.3 0.03 1.85 0.99 92 1007.6
20260507143023 10 297 3.2 9.7 0.03 1.85 0.99 93 1007.8
20260507142022 10 308 3.2 9.7 0.03 1.85 0.99 93 1007.6
20260507141022 9 306 4.8 14.5 0.03 1.85 0.99 93 1007.6
20260507140022 9 291 3.2 14.5 0.03 1.85 0.99 93 1007.5
20260507135022 9 333 3.2 9.7 0.05 1.85 0.99 94 1007.4
20260507134022 8 317 1.6 4.8 0.03 1.83 0.97 94 1007.1
20260507133022 8 6 0.0 3.2 0.05 1.83 0.97 94 1007.2
20260507132022 8 314 3.2 8.0 0.05 1.83 0.97 94 1007.7
20260507131022 8 299 3.2 6.4 0.05 1.83 0.97 95 1007.7
20260507130023 8 303 1.6 6.4 0.05 1.83 0.97 95 1007.6
20260507125022 8 310 1.6 4.8 0.08 1.80 0.94 95 1007.5
20260507124023 8 256 0.0 3.2 0.08 1.80 0.94 94 1007.3
20260507123022 8 305 1.6 6.4 0.05 1.78 0.91 94 1007.7
20260507122022 8 322 1.6 9.7 0.05 1.78 0.91 95 1007.5
20260507121022 8 2 1.6 6.4 0.10 1.78 0.91 94 1007.3
20260507120022 9 321 3.2 12.9 0.10 1.78 0.91 94 1007.7
20260507115022 9 29 1.6 8.0 0.05 1.73 0.86 94 1007.9
20260507114022 9 309 3.2 9.7 0.05 1.73 0.86 95 1007.0
20260507113023 9 2 1.6 8.0 0.05 1.73 0.86 95 1007.0
20260507112022 9 314 3.2 9.7 0.05 1.73 0.86 94 1007.0
20260507111022 9 334 4.8 12.9 0.05 1.68 0.81 95 1007.2
20260507110022 10 339 3.2 12.9 0.08 1.68 0.81 95 1007.0
20260507105022 10 356 3.2 11.3 0.38 1.68 0.81 96 1007.0
20260507104022 10 339 3.2 9.7 0.51 1.68 0.81 96 1006.5
20260507103022 10 339 3.2 9.7 0.58 1.68 0.81 96 1006.8
20260507102022 10 315 3.2 9.7 0.58 1.68 0.81 97 1006.7
20260507101022 10 320 1.6 11.3 0.53 1.63 0.76 97 1006.5
20260507100022 10 340 3.2 8.0 0.69 1.60 0.74 97 1005.7
20260507095022 10 302 4.8 17.7 0.41 1.30 0.43 96 1006.6
20260507094022 11 314 3.2 11.3 0.30 1.17 0.30 97 1005.5
20260507093022 11 342 4.8 11.3 0.23 1.09 0.23 97 1005.8
20260507092023 12 302 4.8 16.1 0.23 1.09 0.23 97 1006.0
20260507091022 12 296 3.2 12.9 0.23 1.09 0.23 97 1006.0
20260507090022 12 277 1.6 6.4 0.05 0.91 0.05 97 1006.2
20260507085022 12 274 1.6 8.0 0.03 0.89 0.03 97 1006.0
20260507084022 12 252 0.0 1.6 0.00 0.86 0.00 97 1005.2
20260507083022 12 0.0 0.0 0.00 0.86 0.00 97 1005.1
20260507082022 12 191 0.0 1.6 0.00 0.86 0.00 97 1005.1
20260507081022 12 190 0.0 1.6 0.00 0.86 0.00 97 1005.1
20260507080022 12 236 0.0 1.6 0.00 0.86 0.00 97 1005.2
20260507075022 12 235 0.0 3.2 0.00 0.86 0.00 97 1005.3
20260507074022 13 238 0.0 1.6 0.00 0.86 0.00 97 1005.4
20260507073022 13 245 0.0 1.6 0.00 0.86 0.00 97 1005.5
20260507072022 13 321 0.0 4.8 0.00 0.86 0.00 97 1005.8
20260507071022 13 249 0.0 1.6 0.00 0.86 0.00 97 1005.6
20260507070022 13 258 0.0 3.2 0.00 0.86 0.00 97 1005.5
20260507065022 13 295 1.6 8.0 0.00 0.86 0.00 97 1005.5
20260507064022 13 297 1.6 6.4 0.00 0.86 0.00 97 1005.6
20260507063022 13 297 3.2 6.4 0.00 0.86 0.00 97 1005.8
20260507062022 13 291 1.6 8.0 0.00 0.86 0.00 97 1005.7
20260507061022 13 240 1.6 4.8 0.00 0.86 0.00 97 1005.6
20260507060022 13 289 1.6 9.7 0.00 0.86 0.00 97 1005.7
20260507055022 13 299 1.6 6.4 0.00 0.86 0.00 97 1005.9
20260507054022 13 92 3.2 8.0 0.00 0.86 0.00 97 1006.1
20260507053022 13 283 1.6 9.7 0.00 0.86 0.00 97 1006.4
20260507052022 13 286 1.6 6.4 0.00 0.86 0.00 97 1006.5
20260507051022 13 275 1.6 11.3 0.00 0.86 0.00 97 1006.3
20260507050022 13 289 1.6 6.4 0.00 0.86 0.00 97 1006.4
20260507045023 13 272 1.6 8.0 0.00 0.86 0.00 97 1006.5
20260507044022 13 235 1.6 6.4 0.00 0.86 0.00 97 1006.6
20260507043022 13 191 1.6 6.4 0.00 0.86 0.00 97 1006.8
20260507042022 13 297 1.6 6.4 0.00 0.86 0.00 97 1006.9
20260507041022 13 306 3.2 6.4 0.00 0.86 0.00 97 1006.7
20260507040029 13 291 3.2 9.7 0.00 0.86 0.00 97 1006.8
20260507035022 13 305 3.2 12.9 0.00 0.86 0.86 97 1007.0
20260507034022 13 270 3.2 25.7 0.00 0.86 0.86 97 1006.9
20260507033022 13 305 3.2 16.1 0.00 0.86 0.86 97 1006.6
20260507032022 13 162 3.2 11.3 0.00 0.86 0.86 97 1006.5
20260507031022 13 263 1.6 6.4 0.00 0.86 0.86 97 1006.6
20260507030022 13 246 3.2 19.3 0.00 0.86 0.86 97 1006.8
20260507025023 13 302 3.2 9.7 0.00 0.86 0.86 97 1007.1
20260507024023 13 185 4.8 9.7 0.00 0.86 0.86 97 1007.3
20260507023023 13 177 3.2 8.0 0.00 0.86 0.86 97 1007.5
20260507022022 13 292 3.2 8.0 0.03 0.86 0.86 97 1007.7
20260507021022 13 259 3.2 11.3 0.03 0.86 0.86 96 1007.6
20260507020022 13 285 3.2 9.7 0.03 0.86 0.86 96 1007.9
20260507015022 13 197 3.2 11.3 0.08 0.86 0.86 96 1008.2
20260507014022 13 224 3.2 11.3 0.23 0.86 0.86 97 1008.1
20260507013022 13 295 4.8 19.3 0.36 0.86 0.86 97 1008.1
20260507012022 13 138 3.2 11.3 0.41 0.84 0.84 97 1008.3
20260507011022 13 159 3.2 9.7 0.43 0.84 0.84 96 1008.3
20260507010022 13 222 3.2 8.0 0.46 0.84 0.84 96 1008.4
20260507005022 13 140 3.2 19.3 0.43 0.79 0.79 96 1008.5
20260507004022 13 148 3.2 9.7 0.30 0.64 0.64 96 1008.2
20260507003022 13 153 3.2 9.7 0.25 0.51 0.51 96 1008.4
20260507002022 13 131 3.2 9.7 0.28 0.43 0.43 96 1008.3
20260507001023 13 143 4.8 9.7 0.33 0.41 0.41 95 1008.3
20260507000027 13 138 3.2 11.3 0.38 0.38 0.38 95 1008.5
20260506235023 14 155 4.8 17.7 0.36 0.36 0.36 95 1008.5
20260506234022 14 148 4.8 14.5 0.33 0.33 0.33 95 1008.7
20260506233022 14 159 4.8 11.3 0.25 0.25 0.25 94 1008.7
20260506232023 15 207 4.8 14.5 0.15 0.15 0.15 93 1008.9
20260506231022 15 152 3.2 14.5 0.08 0.08 0.08 91 1008.9
20260506230022 16 177 4.8 20.9 0.00 0.00 0.00 88 1008.8
20260506225022 16 142 4.8 20.9 0.00 0.00 0.00 87 1008.8
20260506224023 16 155 4.8 11.3 0.00 0.00 0.00 86 1008.9
20260506223022 16 143 4.8 12.9 0.00 0.00 0.00 86 1008.9
20260506222022 16 146 3.2 6.4 0.00 0.00 0.00 85 1009.0
20260506221022 16 161 4.8 16.1 0.00 0.00 0.00 85 1009.2
20260506220023 16 175 3.2 14.5 0.00 0.00 0.00 85 1009.1
20260506215022 16 174 4.8 16.1 0.00 0.00 0.00 84 1009.3
20260506214022 16 148 3.2 12.9 0.00 0.00 0.00 84 1009.3
20260506213022 16 149 4.8 16.1 0.00 0.00 0.00 84 1009.4
20260506212022 16 125 3.2 11.3 0.00 0.00 0.00 84 1009.3
20260506211022 16 158 3.2 12.9 0.00 0.00 0.00 83 1009.4
20260506210023 17 180 4.8 24.1 0.00 0.00 0.00 83 1009.6
20260506205023 17 208 4.8 12.9 0.00 0.00 0.00 82 1009.7
20260506204022 17 156 4.8 14.5 0.00 0.00 0.00 82 1009.9
20260506203023 17 158 6.4 14.5 0.00 0.00 0.00 82 1010.0
20260506202023 17 212 3.2 11.3 0.00 0.00 0.00 81 1010.0
20260506201022 17 215 4.8 9.7 0.00 0.00 0.00 81 1010.2
20260506200023 17 171 4.8 12.9 0.00 0.00 0.00 81 1010.1
20260506195023 17 157 4.8 17.7 0.00 0.00 0.00 81 1010.2
20260506194023 17 168 3.2 9.7 0.00 0.00 0.00 81 1010.2
20260506193023 17 141 4.8 9.7 0.00 0.00 0.00 80 1010.2
20260506192023 17 232 4.8 17.7 0.00 0.00 0.00 79 1010.4
20260506191023 17 137 4.8 14.5 0.00 0.00 0.00 80 1010.5
20260506190022 18 169 4.8 11.3 0.00 0.00 0.00 79 1010.7
20260506185023 18 160 3.2 12.9 0.00 0.00 0.00 78 1011.0
20260506184023 18 224 4.8 17.7 0.00 0.00 0.00 77 1011.0
20260506183023 19 143 6.4 24.1 0.00 0.00 0.00 75 1011.3
20260506182023 20 311 6.4 17.7 0.00 0.00 0.00 74 1011.7
20260506181022 20 298 4.8 17.7 0.00 0.00 0.00 75 1011.7
20260506180023 19 281 4.8 17.7 0.00 0.00 0.00 77 1011.6
20260506175022 18 339 6.4 20.9 0.00 0.00 0.00 78 1011.6
20260506174022 18 160 4.8 12.9 0.00 0.00 0.00 79 1011.6
20260506173023 18 180 4.8 16.1 0.00 0.00 0.00 78 1011.9
20260506172029 18 195 4.8 11.3 0.00 0.00 0.00 78 1012.0
20260506171023 18 148 4.8 24.1 0.00 0.00 0.00 78 1012.1
20260506170022 18 114 3.2 9.7 0.00 0.00 0.00 77 1012.4
20260506165022 19 247 6.4 19.3 0.00 0.00 0.00 75 1012.4
20260506164023 20 270 4.8 11.3 0.00 0.00 0.00 76 1012.4
20260506163023 19 300 6.4 17.7 0.00 0.00 0.00 75 1012.4
20260506162022 20 249 6.4 17.7 0.00 0.00 0.00 75 1012.8
20260506161023 20 174 6.4 27.4 0.00 0.00 0.00 75 1012.9
20260506160023 20 188 6.4 17.7 0.00 0.00 0.00 76 1013.0
20260506155023 19 308 8.0 29.0 0.00 0.00 0.00 76 1013.0
20260506154023 18 284 6.4 20.9 0.00 0.00 0.00 77 1013.0
20260506153023 18 249 4.8 16.1 0.00 0.00 0.00 78 1013.0
20260506152022 18 297 4.8 12.9 0.00 0.00 0.00 77 1012.9